Year,Month,Day,Hour,Minute,Value (Times are PST for temperature in C)
2014,05,16,00,00,17.50
2014,05,16,00,01,17.40
2014,05,16,00,02,17.40
2014,05,16,00,03,17.40
2014,05,16,00,04,17.40
2014,05,16,00,05,17.30
2014,05,16,00,06,17.30
2014,05,16,00,07,17.20
2014,05,16,00,08,17.20
2014,05,16,00,09,17.20
2014,05,16,00,10,17.20
2014,05,16,00,11,17.10
2014,05,16,00,12,17.10
2014,05,16,00,13,17.10
2014,05,16,00,14,17.10
2014,05,16,00,15,17.10
2014,05,16,00,16,17.00
2014,05,16,00,17,17.00
2014,05,16,00,18,17.00
2014,05,16,00,19,17.00
2014,05,16,00,20,16.90
2014,05,16,00,21,16.90
2014,05,16,00,22,16.90
2014,05,16,00,23,16.80
2014,05,16,00,24,16.80
2014,05,16,00,25,16.80
2014,05,16,00,26,16.70
2014,05,16,00,27,16.70
2014,05,16,00,28,16.60
2014,05,16,00,29,16.60
2014,05,16,00,30,16.50
2014,05,16,00,31,16.50
2014,05,16,00,32,16.40
2014,05,16,00,33,16.40
2014,05,16,00,34,16.30
2014,05,16,00,35,16.20
2014,05,16,00,36,16.10
2014,05,16,00,37,16.00
2014,05,16,00,38,16.00
2014,05,16,00,39,16.00
2014,05,16,00,40,16.00
2014,05,16,00,41,16.00
2014,05,16,00,42,16.00
2014,05,16,00,43,16.00
2014,05,16,00,44,16.00
2014,05,16,00,45,16.00
2014,05,16,00,46,16.00
2014,05,16,00,47,16.00
2014,05,16,00,48,16.00
2014,05,16,01,05,15.40
2014,05,16,01,06,15.40
2014,05,16,01,07,15.30
2014,05,16,01,08,15.30
2014,05,16,01,09,15.30
2014,05,16,01,10,15.30
2014,05,16,01,11,15.30
2014,05,16,01,12,15.20
2014,05,16,01,13,15.20
2014,05,16,01,14,15.20
2014,05,16,01,15,15.20
2014,05,16,01,16,15.10
2014,05,16,01,17,15.10
2014,05,16,01,18,15.10
2014,05,16,01,19,15.10
2014,05,16,01,20,15.10
2014,05,16,01,21,15.10
2014,05,16,01,22,15.10
2014,05,16,01,23,15.10
2014,05,16,01,24,15.00
2014,05,16,01,25,15.00
2014,05,16,01,26,15.00
2014,05,16,01,27,15.00
2014,05,16,01,28,14.90
2014,05,16,01,29,14.90
2014,05,16,01,30,14.90
2014,05,16,01,31,14.90
2014,05,16,01,32,14.90
2014,05,16,01,33,14.90
2014,05,16,01,34,14.80
2014,05,16,01,35,14.80
2014,05,16,01,36,14.80
2014,05,16,01,37,14.80
2014,05,16,01,38,14.80
2014,05,16,01,39,14.80
2014,05,16,01,40,14.70
2014,05,16,01,41,14.70
2014,05,16,01,42,14.60
2014,05,16,01,43,14.60
2014,05,16,01,44,14.60
2014,05,16,01,45,14.50
2014,05,16,01,46,14.50
2014,05,16,01,47,14.50
2014,05,16,01,48,14.50
2014,05,16,01,49,14.40
2014,05,16,01,50,14.40
2014,05,16,01,51,14.40
2014,05,16,01,52,14.40
2014,05,16,01,53,14.40
2014,05,16,01,54,14.40
2014,05,16,01,55,14.40
2014,05,16,01,56,14.40
2014,05,16,01,57,14.30
2014,05,16,01,58,14.30
2014,05,16,01,59,14.30
2014,05,16,02,00,14.30
2014,05,16,02,01,14.30
2014,05,16,02,02,14.30
2014,05,16,02,03,14.30
2014,05,16,02,04,14.20
2014,05,16,02,05,14.20
2014,05,16,02,06,14.20
2014,05,16,02,07,14.20
2014,05,16,02,08,14.20
2014,05,16,02,09,14.20
2014,05,16,02,10,14.10
2014,05,16,02,11,14.10
2014,05,16,02,12,14.10
2014,05,16,02,13,14.10
2014,05,16,02,14,14.10
2014,05,16,02,15,14.10
2014,05,16,02,16,14.10
2014,05,16,02,17,14.10
2014,05,16,02,18,14.10
2014,05,16,02,19,14.10
2014,05,16,02,20,14.10
2014,05,16,02,21,14.10
2014,05,16,02,22,14.10
2014,05,16,02,23,14.10
2014,05,16,02,24,14.10
2014,05,16,02,25,14.10
2014,05,16,02,26,14.10
2014,05,16,02,27,14.10
2014,05,16,02,28,14.10
2014,05,16,02,29,14.10
2014,05,16,02,30,14.10
2014,05,16,02,31,14.10
2014,05,16,02,32,14.10
2014,05,16,02,33,14.10
2014,05,16,02,34,14.00
2014,05,16,02,35,14.00
2014,05,16,02,36,14.00
2014,05,16,02,37,14.00
2014,05,16,02,38,14.00
2014,05,16,02,39,14.00
2014,05,16,02,40,14.00
2014,05,16,02,41,14.00
2014,05,16,02,42,14.00
2014,05,16,02,43,14.00
2014,05,16,02,44,13.90
2014,05,16,02,45,13.90
2014,05,16,02,46,13.90
2014,05,16,02,47,13.90
2014,05,16,02,48,13.90
2014,05,16,02,49,13.90
2014,05,16,02,50,13.90
2014,05,16,02,51,13.90
2014,05,16,02,52,13.90
2014,05,16,02,53,13.90
2014,05,16,02,54,13.90
2014,05,16,02,55,13.90
2014,05,16,02,56,13.90
2014,05,16,02,57,13.90
2014,05,16,02,58,13.90
2014,05,16,02,59,13.80
2014,05,16,03,00,13.80
2014,05,16,03,01,13.80
2014,05,16,03,02,13.80
2014,05,16,03,03,13.70
2014,05,16,03,04,13.70
2014,05,16,03,05,13.70
2014,05,16,03,06,13.70
2014,05,16,03,07,13.70
2014,05,16,03,08,13.70
2014,05,16,03,09,13.60
2014,05,16,03,10,13.60
2014,05,16,03,11,13.60
2014,05,16,03,12,13.60
2014,05,16,03,13,13.60
2014,05,16,03,14,13.60
2014,05,16,03,15,13.50
2014,05,16,03,16,13.50
2014,05,16,03,17,13.50
2014,05,16,03,18,13.40
2014,05,16,03,19,13.40
2014,05,16,03,20,13.40
2014,05,16,03,21,13.40
2014,05,16,03,22,13.30
2014,05,16,03,23,13.30
2014,05,16,03,24,13.30
2014,05,16,03,25,13.20
2014,05,16,03,26,13.20
2014,05,16,03,27,13.20
2014,05,16,03,28,13.10
2014,05,16,03,29,13.10
2014,05,16,03,30,13.10
2014,05,16,03,31,13.00
2014,05,16,03,32,13.00
2014,05,16,03,33,13.00
2014,05,16,03,34,12.90
2014,05,16,03,35,12.90
2014,05,16,03,36,12.90
2014,05,16,03,37,12.90
2014,05,16,03,38,12.90
2014,05,16,03,39,12.80
2014,05,16,03,40,12.80
2014,05,16,03,41,12.80
2014,05,16,03,42,12.80
2014,05,16,03,43,12.80
2014,05,16,03,44,12.70
2014,05,16,03,45,12.70
2014,05,16,03,46,12.70
2014,05,16,03,47,12.70
2014,05,16,03,48,12.60
2014,05,16,03,49,12.60
2014,05,16,03,50,12.60
2014,05,16,03,51,12.50
2014,05,16,03,52,12.50
2014,05,16,03,53,12.40
2014,05,16,03,54,12.40
2014,05,16,03,55,12.40
2014,05,16,03,56,12.30
2014,05,16,03,57,12.30
2014,05,16,03,58,12.30
2014,05,16,03,59,12.20
2014,05,16,04,00,12.20
2014,05,16,04,01,12.10
2014,05,16,04,02,12.10
2014,05,16,04,03,12.00
2014,05,16,04,04,12.00
2014,05,16,04,05,11.90
2014,05,16,04,06,11.90
2014,05,16,04,07,11.80
2014,05,16,04,08,11.80
2014,05,16,04,09,11.80
2014,05,16,04,10,11.70
2014,05,16,04,11,11.70
2014,05,16,04,12,11.70
2014,05,16,04,13,11.70
2014,05,16,04,14,11.60
2014,05,16,04,15,11.60
2014,05,16,04,16,11.60
2014,05,16,04,17,11.60
2014,05,16,04,18,11.50
2014,05,16,04,19,11.50
2014,05,16,04,20,11.50
2014,05,16,04,21,11.40
2014,05,16,04,22,11.40
2014,05,16,04,23,11.40
2014,05,16,04,24,11.40
2014,05,16,04,25,11.40
2014,05,16,04,26,11.30
2014,05,16,04,27,11.30
2014,05,16,04,28,11.30
2014,05,16,04,29,11.30
2014,05,16,04,30,11.30
2014,05,16,04,31,11.30
2014,05,16,04,32,11.30
2014,05,16,04,33,11.30
2014,05,16,04,34,11.30
2014,05,16,04,35,11.20
2014,05,16,04,36,11.20
2014,05,16,04,37,11.20
2014,05,16,04,38,11.20
2014,05,16,04,39,11.20
2014,05,16,04,40,11.10
2014,05,16,04,41,11.10
2014,05,16,04,42,11.10
2014,05,16,04,43,11.10
2014,05,16,04,44,11.10
2014,05,16,04,45,11.00
2014,05,16,04,46,11.00
2014,05,16,04,47,11.00
2014,05,16,04,48,11.00
2014,05,16,04,49,10.90
2014,05,16,04,50,10.90
2014,05,16,04,51,10.90
2014,05,16,04,52,10.80
2014,05,16,04,53,10.80
2014,05,16,04,54,10.80
2014,05,16,04,55,10.70
2014,05,16,04,56,10.70
2014,05,16,04,57,10.70
2014,05,16,04,58,10.70
2014,05,16,04,59,10.60
2014,05,16,05,00,10.60
2014,05,16,05,01,10.60
2014,05,16,05,02,10.50
2014,05,16,05,03,10.50
2014,05,16,05,04,10.40
2014,05,16,05,05,10.40
2014,05,16,05,06,10.40
2014,05,16,05,07,10.40
2014,05,16,05,08,10.30
2014,05,16,05,09,10.30
2014,05,16,05,10,10.30
2014,05,16,05,11,10.30
2014,05,16,05,12,10.20
2014,05,16,05,13,10.20
2014,05,16,05,14,10.20
2014,05,16,05,15,10.10
2014,05,16,05,16,10.10
2014,05,16,05,17,10.10
2014,05,16,05,18,10.10
2014,05,16,05,19,10.00
2014,05,16,05,20,10.00
2014,05,16,05,21,10.00
2014,05,16,05,22,10.00
2014,05,16,05,23,9.90
2014,05,16,05,24,9.90
2014,05,16,05,25,9.80
2014,05,16,05,26,9.80
2014,05,16,05,27,9.80
2014,05,16,05,28,9.80
2014,05,16,05,29,9.70
2014,05,16,05,30,9.70
2014,05,16,05,31,9.70
2014,05,16,05,32,9.70
2014,05,16,05,33,9.70
2014,05,16,05,34,9.70
2014,05,16,05,35,9.60
2014,05,16,05,36,9.60
2014,05,16,05,37,9.60
2014,05,16,05,38,9.60
2014,05,16,05,39,9.60
2014,05,16,05,40,9.60
2014,05,16,05,41,9.60
2014,05,16,05,42,9.60
2014,05,16,05,43,9.50
2014,05,16,05,44,9.50
2014,05,16,05,45,9.60
2014,05,16,05,46,9.60
2014,05,16,05,47,9.60
2014,05,16,05,48,9.60
2014,05,16,05,49,9.50
2014,05,16,05,50,9.50
2014,05,16,05,51,9.50
2014,05,16,05,52,9.50
2014,05,16,05,53,9.50
2014,05,16,05,54,9.50
2014,05,16,05,55,9.50
2014,05,16,05,56,9.50
2014,05,16,05,57,9.50
2014,05,16,05,58,9.50
2014,05,16,05,59,9.60
2014,05,16,06,00,9.60
2014,05,16,06,01,9.60
2014,05,16,06,02,9.60
2014,05,16,06,03,9.60
2014,05,16,06,04,9.60
2014,05,16,06,05,9.60
2014,05,16,06,06,9.60
2014,05,16,06,07,9.60
2014,05,16,06,08,9.60
2014,05,16,06,09,9.60
2014,05,16,06,10,9.60
2014,05,16,06,11,9.60
2014,05,16,06,12,9.60
2014,05,16,06,13,9.60
2014,05,16,06,14,9.60
2014,05,16,06,15,9.60
2014,05,16,06,16,9.60
2014,05,16,06,17,9.60
2014,05,16,06,18,9.60
2014,05,16,06,19,9.60
2014,05,16,06,20,9.60
2014,05,16,06,21,9.60
2014,05,16,06,22,9.60
2014,05,16,06,23,9.60
2014,05,16,06,24,9.60
2014,05,16,06,25,9.60
2014,05,16,06,26,9.60
2014,05,16,06,27,9.60
2014,05,16,06,28,9.60
2014,05,16,06,29,9.70
2014,05,16,06,30,9.70
2014,05,16,06,31,9.70
2014,05,16,06,32,9.80
2014,05,16,06,33,9.80
2014,05,16,06,34,9.90
2014,05,16,06,35,9.90
2014,05,16,06,36,10.00
2014,05,16,06,37,10.00
2014,05,16,06,38,10.10
2014,05,16,06,39,10.20
2014,05,16,06,40,10.30
2014,05,16,06,41,10.30
2014,05,16,06,42,10.40
2014,05,16,06,43,10.50
2014,05,16,06,44,10.60
2014,05,16,06,45,10.70
2014,05,16,06,46,10.80
2014,05,16,06,47,10.90
2014,05,16,06,48,11.00
2014,05,16,06,49,11.10
2014,05,16,06,50,11.20
2014,05,16,06,51,11.20
2014,05,16,06,52,11.30
2014,05,16,06,53,11.30
2014,05,16,06,54,11.40
2014,05,16,06,55,11.40
2014,05,16,06,56,11.40
2014,05,16,06,57,11.50
2014,05,16,06,58,11.50
2014,05,16,06,59,11.60
2014,05,16,07,00,11.60
2014,05,16,07,01,11.60
2014,05,16,07,02,11.60
2014,05,16,07,03,11.60
2014,05,16,07,04,11.70
2014,05,16,07,05,11.80
2014,05,16,07,06,11.80
2014,05,16,07,07,11.90
2014,05,16,07,08,11.90
2014,05,16,07,09,11.90
2014,05,16,07,10,12.00
2014,05,16,07,11,12.00
2014,05,16,07,12,12.10
2014,05,16,07,13,12.10
2014,05,16,07,14,12.20
2014,05,16,07,15,12.30
2014,05,16,07,16,12.40
2014,05,16,07,17,12.40
2014,05,16,07,18,12.50
2014,05,16,07,19,12.60
2014,05,16,07,20,12.70
2014,05,16,07,21,12.80
2014,05,16,07,22,12.90
2014,05,16,07,23,13.00
2014,05,16,07,24,13.10
2014,05,16,07,25,13.20
2014,05,16,07,26,13.30
2014,05,16,07,27,13.30
2014,05,16,07,28,13.40
2014,05,16,07,29,13.50
2014,05,16,07,30,13.50
2014,05,16,07,31,13.60
2014,05,16,07,32,13.70
2014,05,16,07,33,13.80
2014,05,16,07,34,13.90
2014,05,16,07,35,13.90
2014,05,16,07,36,14.00
2014,05,16,07,37,14.00
2014,05,16,07,38,14.10
2014,05,16,07,39,14.20
2014,05,16,07,40,14.30
2014,05,16,07,41,14.40
2014,05,16,07,42,14.50
2014,05,16,07,43,14.60
2014,05,16,07,44,14.70
2014,05,16,07,45,14.70
2014,05,16,07,46,14.80
2014,05,16,07,47,14.90
2014,05,16,07,48,14.90
2014,05,16,07,49,14.90
2014,05,16,07,50,15.00
2014,05,16,07,51,15.00
2014,05,16,07,52,15.00
2014,05,16,07,53,15.10
2014,05,16,07,54,15.10
2014,05,16,07,55,15.10
2014,05,16,07,56,15.20
2014,05,16,07,57,15.20
2014,05,16,07,58,15.20
2014,05,16,07,59,15.30
2014,05,16,08,00,15.30
2014,05,16,08,01,15.30
2014,05,16,08,02,15.40
2014,05,16,08,03,15.40
2014,05,16,08,04,15.40
2014,05,16,08,05,15.50
2014,05,16,08,06,15.60
2014,05,16,08,07,15.60
2014,05,16,08,08,15.70
2014,05,16,08,09,15.70
2014,05,16,08,10,15.70
2014,05,16,08,11,15.80
2014,05,16,08,12,15.90
2014,05,16,08,13,15.90
2014,05,16,08,14,15.90
2014,05,16,08,15,16.00
2014,05,16,08,16,16.10
2014,05,16,08,17,16.10
2014,05,16,08,18,16.10
2014,05,16,08,19,16.10
2014,05,16,08,20,16.20
2014,05,16,08,21,16.20
2014,05,16,08,22,16.20
2014,05,16,08,23,16.20
2014,05,16,08,24,16.20
2014,05,16,08,25,16.20
2014,05,16,08,26,16.30
2014,05,16,08,27,16.30
2014,05,16,08,28,16.40
2014,05,16,08,29,16.40
2014,05,16,08,30,16.50
2014,05,16,08,31,16.50
2014,05,16,08,32,16.50
2014,05,16,08,33,16.60
2014,05,16,08,34,16.60
2014,05,16,08,35,16.60
2014,05,16,08,36,16.60
2014,05,16,08,37,16.60
2014,05,16,08,38,16.60
2014,05,16,08,39,16.60
2014,05,16,08,40,16.70
2014,05,16,08,41,16.70
2014,05,16,08,42,16.70
2014,05,16,08,43,16.70
2014,05,16,08,44,16.70
2014,05,16,08,45,16.80
2014,05,16,08,46,16.80
2014,05,16,08,47,16.90
2014,05,16,08,48,16.90
2014,05,16,08,49,16.80
2014,05,16,08,50,16.80
2014,05,16,08,51,16.80
2014,05,16,08,52,16.60
2014,05,16,08,53,16.50
2014,05,16,08,54,16.40
2014,05,16,08,55,16.40
2014,05,16,08,56,16.40
2014,05,16,08,57,16.40
2014,05,16,08,58,16.20
2014,05,16,08,59,16.10
2014,05,16,09,00,16.00
2014,05,16,09,01,16.00
2014,05,16,09,02,16.00
2014,05,16,09,03,15.90
2014,05,16,09,04,15.80
2014,05,16,09,05,15.80
2014,05,16,09,06,15.70
2014,05,16,09,07,15.60
2014,05,16,09,08,15.60
2014,05,16,09,09,15.60
2014,05,16,09,10,15.60
2014,05,16,09,11,15.60
2014,05,16,09,12,15.60
2014,05,16,09,13,15.60
2014,05,16,09,14,15.70
2014,05,16,09,15,15.60
2014,05,16,09,16,15.60
2014,05,16,09,17,15.60
2014,05,16,09,18,15.50
2014,05,16,09,19,15.50
2014,05,16,09,20,15.40
2014,05,16,09,21,15.40
2014,05,16,09,22,15.30
2014,05,16,09,23,15.30
2014,05,16,09,24,15.30
2014,05,16,09,25,15.20
2014,05,16,09,26,15.20
2014,05,16,09,27,15.20
2014,05,16,09,28,15.20
2014,05,16,09,29,15.20
2014,05,16,09,30,15.20
2014,05,16,09,31,15.20
2014,05,16,09,32,15.20
2014,05,16,09,33,15.10
2014,05,16,09,34,15.10
2014,05,16,09,35,15.20
2014,05,16,09,36,15.20
2014,05,16,09,37,15.20
2014,05,16,09,38,15.20
2014,05,16,09,39,15.10
2014,05,16,09,40,15.10
2014,05,16,09,41,15.10
2014,05,16,09,42,15.00
2014,05,16,09,43,15.00
2014,05,16,09,44,15.00
2014,05,16,09,45,15.00
2014,05,16,09,46,14.90
2014,05,16,09,47,14.90
2014,05,16,09,48,14.90
2014,05,16,09,49,14.90
2014,05,16,09,50,14.90
2014,05,16,09,51,15.00
2014,05,16,09,52,15.00
2014,05,16,09,53,15.00
2014,05,16,09,54,15.10
2014,05,16,09,55,15.10
2014,05,16,09,56,15.10
2014,05,16,09,57,15.20
2014,05,16,09,58,15.20
2014,05,16,09,59,15.20
2014,05,16,10,00,15.20
2014,05,16,10,01,15.20
2014,05,16,10,02,15.20
2014,05,16,10,03,15.20
2014,05,16,10,04,15.20
2014,05,16,10,05,15.20
2014,05,16,10,06,15.20
2014,05,16,10,07,15.20
2014,05,16,10,08,15.20
2014,05,16,10,09,15.20
2014,05,16,10,10,15.20
2014,05,16,10,11,15.20
2014,05,16,10,12,15.30
2014,05,16,10,13,15.30
2014,05,16,10,14,15.30
2014,05,16,10,15,15.30
2014,05,16,10,16,15.20
2014,05,16,10,17,15.30
2014,05,16,10,18,15.30
2014,05,16,10,19,15.40
2014,05,16,10,20,15.40
2014,05,16,10,21,15.40
2014,05,16,10,22,15.40
2014,05,16,10,23,15.40
2014,05,16,10,24,15.50
2014,05,16,10,25,15.60
2014,05,16,10,26,15.60
2014,05,16,10,27,15.70
2014,05,16,10,28,15.70
2014,05,16,10,29,15.70
2014,05,16,10,30,15.70
2014,05,16,10,31,15.70
2014,05,16,10,32,15.60
2014,05,16,10,33,15.60
2014,05,16,10,34,15.60
2014,05,16,10,35,15.50
2014,05,16,10,36,15.50
2014,05,16,10,37,15.50
2014,05,16,10,38,15.50
2014,05,16,10,39,15.60
2014,05,16,10,40,15.60
2014,05,16,10,41,15.70
2014,05,16,10,42,15.80
2014,05,16,10,43,15.90
2014,05,16,10,44,15.90
2014,05,16,10,45,16.00
2014,05,16,10,46,16.00
2014,05,16,10,47,16.00
2014,05,16,10,48,16.00
2014,05,16,10,49,16.10
2014,05,16,10,50,16.10
2014,05,16,10,51,16.10
2014,05,16,10,52,16.20
2014,05,16,10,53,16.20
2014,05,16,10,54,16.20
2014,05,16,10,55,16.20
2014,05,16,10,56,16.20
2014,05,16,10,57,16.20
2014,05,16,10,58,16.30
2014,05,16,10,59,16.40
2014,05,16,11,00,16.50
2014,05,16,11,01,16.60
2014,05,16,11,02,16.70
2014,05,16,11,03,16.90
2014,05,16,11,04,16.90
2014,05,16,11,05,16.90
2014,05,16,11,06,16.80
2014,05,16,11,07,16.80
2014,05,16,11,08,16.90
2014,05,16,11,09,16.90
2014,05,16,11,10,16.90
2014,05,16,11,11,16.90
2014,05,16,11,12,16.90
2014,05,16,11,13,16.90
2014,05,16,11,14,16.90
2014,05,16,11,15,16.90
2014,05,16,11,16,17.00
2014,05,16,11,17,17.00
2014,05,16,11,18,17.10
2014,05,16,11,19,17.10
2014,05,16,11,20,17.20
2014,05,16,11,21,17.20
2014,05,16,11,22,17.20
2014,05,16,11,23,17.00
2014,05,16,11,24,16.90
2014,05,16,11,25,17.00
2014,05,16,11,26,17.00
2014,05,16,11,27,17.00
2014,05,16,11,28,16.90
2014,05,16,11,29,16.80
2014,05,16,11,30,16.80
2014,05,16,11,31,16.80
2014,05,16,11,32,16.80
2014,05,16,11,33,16.80
2014,05,16,11,34,16.90
2014,05,16,11,35,16.80
2014,05,16,11,36,16.90
2014,05,16,11,37,16.90
2014,05,16,11,38,16.90
2014,05,16,11,39,16.90
2014,05,16,11,40,16.80
2014,05,16,11,41,16.90
2014,05,16,11,42,16.90
2014,05,16,11,43,17.00
2014,05,16,11,44,17.10
2014,05,16,11,45,17.20
2014,05,16,11,46,17.20
2014,05,16,11,47,17.10
2014,05,16,11,48,17.10
2014,05,16,11,49,17.00
2014,05,16,11,50,17.10
2014,05,16,11,51,17.10
2014,05,16,11,52,17.00
2014,05,16,11,53,16.90
2014,05,16,11,54,16.80
2014,05,16,11,55,16.80
2014,05,16,11,56,16.80
2014,05,16,11,57,16.80
2014,05,16,11,58,16.80
2014,05,16,11,59,16.80
2014,05,16,12,00,16.80
2014,05,16,12,01,16.80
2014,05,16,12,02,16.80
2014,05,16,12,03,16.90
2014,05,16,12,04,17.00
2014,05,16,12,05,17.10
2014,05,16,12,06,17.20
2014,05,16,12,07,17.20
2014,05,16,12,08,17.10
2014,05,16,12,09,17.10
2014,05,16,12,10,17.20
2014,05,16,12,11,17.30
2014,05,16,12,12,17.40
2014,05,16,12,13,17.50
2014,05,16,12,14,17.50
2014,05,16,12,15,17.40
2014,05,16,12,16,17.30
2014,05,16,12,17,17.20
2014,05,16,12,18,17.20
2014,05,16,12,19,17.20
2014,05,16,12,20,17.20
2014,05,16,12,21,17.30
2014,05,16,12,22,17.30
2014,05,16,12,23,17.40
2014,05,16,12,24,17.40
2014,05,16,12,25,17.30
2014,05,16,12,26,17.20
2014,05,16,12,27,17.30
2014,05,16,12,28,17.30
2014,05,16,12,29,17.30
2014,05,16,12,30,17.30
2014,05,16,12,31,17.30
2014,05,16,12,32,17.30
2014,05,16,12,33,17.30
2014,05,16,12,34,17.20
2014,05,16,12,35,17.10
2014,05,16,12,36,17.00
2014,05,16,12,37,17.00
2014,05,16,12,38,17.10
2014,05,16,12,39,17.10
2014,05,16,12,40,17.20
2014,05,16,12,41,17.20
2014,05,16,12,42,17.20
2014,05,16,12,43,17.30
2014,05,16,12,44,17.30
2014,05,16,12,45,17.20
2014,05,16,12,46,17.10
2014,05,16,12,47,17.10
2014,05,16,12,48,16.90
2014,05,16,12,49,16.80
2014,05,16,12,50,16.70
2014,05,16,12,51,16.70
2014,05,16,12,52,16.70
2014,05,16,12,53,16.80
2014,05,16,12,54,16.90
2014,05,16,12,55,16.90
2014,05,16,12,56,16.90
2014,05,16,12,57,17.00
2014,05,16,12,58,17.00
2014,05,16,12,59,17.00
2014,05,16,13,00,16.90
2014,05,16,13,01,16.90
2014,05,16,13,02,16.80
2014,05,16,13,03,16.80
2014,05,16,13,04,16.70
2014,05,16,13,05,16.60
2014,05,16,13,06,16.70
2014,05,16,13,07,16.70
2014,05,16,13,08,16.70
2014,05,16,13,09,16.70
2014,05,16,13,10,16.70
2014,05,16,13,11,16.70
2014,05,16,13,12,16.70
2014,05,16,13,13,16.60
2014,05,16,13,14,16.60
2014,05,16,13,15,16.60
2014,05,16,13,16,16.70
2014,05,16,13,17,16.70
2014,05,16,13,18,16.80
2014,05,16,13,19,16.90
2014,05,16,13,20,17.00
2014,05,16,13,21,17.10
2014,05,16,13,22,17.10
2014,05,16,13,23,17.10
2014,05,16,13,24,17.10
2014,05,16,13,25,17.00
2014,05,16,13,26,17.10
2014,05,16,13,27,17.10
2014,05,16,13,28,17.10
2014,05,16,13,29,17.10
2014,05,16,13,30,17.20
2014,05,16,13,31,17.20
2014,05,16,13,32,17.10
2014,05,16,13,33,17.10
2014,05,16,13,34,17.00
2014,05,16,13,35,16.90
2014,05,16,13,36,16.80
2014,05,16,13,37,16.70
2014,05,16,13,38,16.60
2014,05,16,13,39,16.60
2014,05,16,13,40,16.60
2014,05,16,13,41,16.80
2014,05,16,13,42,17.00
2014,05,16,13,43,17.20
2014,05,16,13,44,17.30
2014,05,16,13,45,17.20
2014,05,16,13,46,17.20
2014,05,16,13,47,17.20
2014,05,16,13,48,17.20
2014,05,16,13,49,17.10
2014,05,16,13,50,17.10
2014,05,16,13,51,17.00
2014,05,16,13,52,16.90
2014,05,16,13,53,16.90
2014,05,16,13,54,16.70
2014,05,16,13,55,16.60
2014,05,16,13,56,16.50
2014,05,16,13,57,16.60
2014,05,16,13,58,16.60
2014,05,16,13,59,16.60
2014,05,16,14,00,16.70
2014,05,16,14,01,16.80
2014,05,16,14,02,17.00
2014,05,16,14,03,17.10
2014,05,16,14,04,17.20
2014,05,16,14,05,17.20
2014,05,16,14,06,17.10
2014,05,16,14,07,17.00
2014,05,16,14,08,16.90
2014,05,16,14,09,16.80
2014,05,16,14,10,16.80
2014,05,16,14,11,16.80
2014,05,16,14,12,16.80
2014,05,16,14,13,16.80
2014,05,16,14,14,16.80
2014,05,16,14,15,16.80
2014,05,16,14,16,16.80
2014,05,16,14,17,16.80
2014,05,16,14,18,16.80
2014,05,16,14,19,16.80
2014,05,16,14,20,16.80
2014,05,16,14,21,16.80
2014,05,16,14,22,16.80
2014,05,16,14,23,16.80
2014,05,16,14,24,16.80
2014,05,16,14,25,16.80
2014,05,16,14,26,16.80
2014,05,16,14,27,16.80
2014,05,16,14,28,16.70
2014,05,16,14,29,16.80
2014,05,16,14,30,16.80
2014,05,16,14,31,16.80
2014,05,16,14,32,16.70
2014,05,16,14,33,16.80
2014,05,16,14,34,16.70
2014,05,16,14,35,16.70
2014,05,16,14,36,16.60
2014,05,16,14,37,16.70
2014,05,16,14,38,16.70
2014,05,16,14,39,16.80
2014,05,16,14,40,16.90
2014,05,16,14,41,17.00
2014,05,16,14,42,17.10
2014,05,16,14,43,17.10
2014,05,16,14,44,17.10
2014,05,16,14,45,17.20
2014,05,16,14,46,17.20
2014,05,16,14,47,17.20
2014,05,16,14,48,17.20
2014,05,16,14,49,17.20
2014,05,16,14,50,17.10
2014,05,16,14,51,17.10
2014,05,16,14,52,17.20
2014,05,16,14,53,17.30
2014,05,16,14,54,17.30
2014,05,16,14,55,17.30
2014,05,16,14,56,17.30
2014,05,16,14,57,17.20
2014,05,16,14,58,17.20
2014,05,16,14,59,17.20
2014,05,16,15,00,17.20
2014,05,16,15,01,17.20
2014,05,16,15,02,17.10
2014,05,16,15,03,17.10
2014,05,16,15,04,17.30
2014,05,16,15,05,17.30
2014,05,16,15,06,17.40
2014,05,16,15,07,17.50
2014,05,16,15,08,17.70
2014,05,16,15,09,17.80
2014,05,16,15,10,17.80
2014,05,16,15,11,17.80
2014,05,16,15,12,17.70
2014,05,16,15,13,17.70
2014,05,16,15,14,17.70
2014,05,16,15,15,17.60
2014,05,16,15,16,17.60
2014,05,16,15,17,17.60
2014,05,16,15,18,17.60
2014,05,16,15,19,17.70
2014,05,16,15,20,17.80
2014,05,16,15,21,17.80
2014,05,16,15,22,17.80
2014,05,16,15,23,17.80
2014,05,16,15,24,17.80
2014,05,16,15,25,17.70
2014,05,16,15,26,17.60
2014,05,16,15,27,17.60
2014,05,16,15,28,17.60
2014,05,16,15,29,17.60
2014,05,16,15,30,17.50
2014,05,16,15,31,17.30
2014,05,16,15,32,17.20
2014,05,16,15,33,17.20
2014,05,16,15,34,17.20
2014,05,16,15,35,17.20
2014,05,16,15,36,17.20
2014,05,16,15,37,17.20
2014,05,16,15,38,17.20
2014,05,16,15,39,17.20
2014,05,16,15,40,17.20
2014,05,16,15,41,17.20
2014,05,16,15,42,17.10
2014,05,16,15,43,17.10
2014,05,16,15,44,17.10
2014,05,16,15,45,17.20
2014,05,16,15,46,17.20
2014,05,16,15,47,17.20
2014,05,16,15,48,17.20
2014,05,16,15,49,17.20
2014,05,16,15,50,17.20
2014,05,16,15,51,17.20
2014,05,16,15,52,17.30
2014,05,16,15,53,17.30
2014,05,16,15,54,17.40
2014,05,16,15,55,17.40
2014,05,16,15,56,17.40
2014,05,16,15,57,17.30
2014,05,16,15,58,17.30
2014,05,16,15,59,17.20
2014,05,16,16,00,17.20
2014,05,16,16,01,17.10
2014,05,16,16,02,17.00
2014,05,16,16,03,16.90
2014,05,16,16,04,16.90
2014,05,16,16,05,17.00
2014,05,16,16,06,17.10
2014,05,16,16,07,17.10
2014,05,16,16,08,17.10
2014,05,16,16,09,17.10
2014,05,16,16,10,17.10
2014,05,16,16,11,17.10
2014,05,16,16,12,17.10
2014,05,16,16,13,17.10
2014,05,16,16,14,17.20
2014,05,16,16,15,17.20
2014,05,16,16,16,17.30
2014,05,16,16,17,17.20
2014,05,16,16,18,17.20
2014,05,16,16,19,17.20
2014,05,16,16,20,17.20
2014,05,16,16,21,17.20
2014,05,16,16,22,17.20
2014,05,16,16,23,17.20
2014,05,16,16,24,17.20
2014,05,16,16,25,17.30
2014,05,16,16,26,17.30
2014,05,16,16,27,17.40
2014,05,16,16,28,17.40
2014,05,16,16,29,17.50
2014,05,16,16,30,17.50
2014,05,16,16,31,17.40
2014,05,16,16,32,17.40
2014,05,16,16,33,17.40
2014,05,16,16,34,17.30
2014,05,16,16,35,17.20
2014,05,16,16,36,17.20
2014,05,16,16,37,17.20
2014,05,16,16,38,17.20
2014,05,16,16,39,17.20
2014,05,16,16,40,17.20
2014,05,16,16,41,17.10
2014,05,16,16,42,17.10
2014,05,16,16,43,17.10
2014,05,16,16,44,17.20
2014,05,16,16,45,17.20
2014,05,16,16,46,17.20
2014,05,16,16,47,17.10
2014,05,16,16,48,17.10
2014,05,16,16,49,17.10
2014,05,16,16,50,17.00
2014,05,16,16,51,17.10
2014,05,16,16,52,17.10
2014,05,16,16,53,17.10
2014,05,16,16,54,17.00
2014,05,16,16,55,17.00
2014,05,16,16,56,17.00
2014,05,16,16,57,16.90
2014,05,16,16,58,16.90
2014,05,16,16,59,16.90
2014,05,16,17,00,16.90
2014,05,16,17,01,16.90
2014,05,16,17,02,16.90
2014,05,16,17,03,16.90
2014,05,16,17,04,16.90
2014,05,16,17,05,16.90
2014,05,16,17,06,16.90
2014,05,16,17,07,16.90
2014,05,16,17,08,16.90
2014,05,16,17,09,16.90
2014,05,16,17,10,16.90
2014,05,16,17,11,16.90
2014,05,16,17,12,16.90
2014,05,16,17,13,16.90
2014,05,16,17,14,16.90
2014,05,16,17,15,16.90
2014,05,16,17,16,16.90
2014,05,16,17,17,16.90
2014,05,16,17,18,16.90
2014,05,16,17,19,16.90
2014,05,16,17,20,16.90
2014,05,16,17,21,16.90
2014,05,16,17,22,16.80
2014,05,16,17,23,16.90
2014,05,16,17,24,16.90
2014,05,16,17,25,16.90
2014,05,16,17,26,16.90
2014,05,16,17,27,16.90
2014,05,16,17,28,16.90
2014,05,16,17,29,16.90
2014,05,16,17,30,16.80
2014,05,16,17,31,16.80
2014,05,16,17,32,16.80
2014,05,16,17,33,16.80
2014,05,16,17,34,16.80
2014,05,16,17,35,16.80
2014,05,16,17,36,16.70
2014,05,16,17,37,16.70
2014,05,16,17,38,16.70